Fulton, NY

12:17 PM EST on February 19, 2017 (GMT -0500)
Oswego County

Weather History for KFZY - June, 2013

Change the Weather History Date:

Sunday, June 9, 2013

  Actual Average (KSYR) Record (KSYR)
Temperature  
Mean Temperature 64 °F -  
Max Temperature 73 °F 76 °F 95 °F (2008)
Min Temperature 55 °F 53 °F 37 °F (1983)
Degree Days  
Heating Degree Days 1    
Growing Degree Days 14 (Base 50)    
Moisture  
Dew Point 53 °F    
Average Humidity 70    
Maximum Humidity 93    
Minimum Humidity 48    
Precipitation  
Precipitation 0.00 in - - ()
Sea Level Pressure  
Sea Level Pressure 30.14 in    
Wind  
Wind Speed 4 mph (West)    
Max Wind Speed 12 mph    
Max Gust Speed -    
Visibility 10 miles    
Events      
Averages and records for this station are not official NWS values.
T = Trace of Precipitation, MM = Missing Value Source: NWS Daily Summary

Daily Weather History Graph

Daily Weather History Graph

Search for Another Location

Airport or City:

Trip Planner

Search our weather history database for the weather conditions in past years. The results will help you decide how hot, cold, wet, or windy it might be!

Date:

Astronomy

Jun. 09, 2013 Rise Set
Actual Time 5:25 AM EDT 8:44 PM EDT
Civil Twilight 4:49 AM EDT 9:20 PM EDT
Nautical Twilight 4:03 AM EDT 10:06 PM EDT
Astronomical Twilight 3:07 AM EDT 11:03 PM EDT
Moon 6:21 AM EDT (6/9) 9:27 PM EDT (6/9)
Length of Visible Light 16h 30m
Length of Day
15h 19m
New Moon, 1% of the Moon is Illuminated
Jun 9
New Moon
Jun 16
First Quarter
Jun 23
Full
Jun 30
Last Quarter
Jul 8
New

Hourly Weather History & Observations

Time (EDT) Temp. Dew Point Humidity Pressure Visibility Wind Dir Wind Speed Gust Speed Precip Events Conditions
12:54 AM 55.0 °F 52.0 °F 89% 30.08 in 10.0 mi Calm Calm - N/A   Partly Cloudy
1:54 AM 55.9 °F 54.0 °F 93% 30.08 in 10.0 mi SSW 5.8 mph - N/A   Partly Cloudy
2:54 AM 57.0 °F 54.0 °F 89% 30.08 in 10.0 mi SSW 5.8 mph - N/A   Overcast
3:54 AM 57.0 °F 54.0 °F 89% 30.09 in 10.0 mi SW 4.6 mph - N/A   Overcast
4:54 AM 57.0 °F 54.0 °F 89% 30.10 in 10.0 mi WSW 3.5 mph - N/A   Overcast
5:54 AM 57.0 °F 53.1 °F 87% 30.12 in 10.0 mi WSW 5.8 mph - N/A   Overcast
6:54 AM 57.9 °F 53.1 °F 84% 30.14 in 10.0 mi WSW 5.8 mph - N/A   Mostly Cloudy
7:54 AM 60.1 °F 54.0 °F 80% 30.16 in 10.0 mi West 6.9 mph - N/A   Partly Cloudy
8:54 AM 64.0 °F 55.0 °F 73% 30.17 in 10.0 mi West 6.9 mph - N/A   Clear
9:54 AM 66.9 °F 55.0 °F 66% 30.18 in 10.0 mi NW 11.5 mph - N/A   Clear
10:54 AM 66.0 °F 53.1 °F 63% 30.19 in 10.0 mi NNW 8.1 mph - N/A   Clear
11:54 AM 69.1 °F 54.0 °F 58% 30.19 in 10.0 mi WNW 9.2 mph - N/A   Clear
12:54 PM 70.0 °F 53.1 °F 55% 30.18 in 10.0 mi WSW 5.8 mph - N/A   Clear
1:54 PM 71.1 °F 53.1 °F 53% 30.17 in 10.0 mi WNW 8.1 mph - N/A   Clear
2:54 PM 72.0 °F 52.0 °F 49% 30.17 in 10.0 mi WNW 8.1 mph - N/A   Clear
3:54 PM 73.0 °F 53.1 °F 49% 30.16 in 10.0 mi Calm Calm - N/A   Clear
4:54 PM 73.0 °F 52.0 °F 48% 30.15 in 10.0 mi West 3.5 mph - N/A   Clear
5:54 PM 73.0 °F 52.0 °F 48% 30.14 in 10.0 mi Calm Calm - N/A   Clear
6:54 PM 72.0 °F 53.1 °F 51% 30.14 in 10.0 mi NNW 3.5 mph - N/A   Clear
7:54 PM 70.0 °F 54.0 °F 57% 30.15 in 10.0 mi Calm Calm - N/A   Clear
8:54 PM 63.0 °F 53.1 °F 70% 30.15 in 10.0 mi Calm Calm - N/A   Clear
9:54 PM 57.0 °F 53.1 °F 87% 30.16 in 10.0 mi East 3.5 mph - N/A   Clear
10:54 PM 57.9 °F 51.1 °F 78% 30.16 in 10.0 mi East 3.5 mph - N/A   Clear
11:54 PM 57.9 °F 51.1 °F 78% 30.16 in 10.0 mi Calm Calm - N/A   Clear